Weather History for Wheeler AAF, HI

Change the Weather History Date:

Thursday, February 14, 2013

  Actual Average Record
Temperature  
Mean Temperature 66 °F -  
Max Temperature 74 °F 74 °F 78 °F (2011)
Min Temperature 59 °F 61 °F 58 °F (2007)
Cooling Degree Days 2    
Growing Degree Days 16 (Base 50)    
Moisture  
Dew Point 57 °F    
Average Humidity 70    
Maximum Humidity 82    
Minimum Humidity 54    
Precipitation  
Precipitation 0.00 in - - ()
Sea Level Pressure  
Sea Level Pressure 30.05 in    
Wind  
Wind Speed 6 mph (NE)    
Max Wind Speed 14 mph    
Max Gust Speed -    
Visibility 10 miles    
Events      
Averages and records for this station are not official NWS values.
T = Trace of Precipitation, MM = Missing Value Source: NWS Daily Summary

Daily Weather History Graph

Daily Weather History Graph

Search for Another Location

Airport:

Trip Planner

Search our weather history database for the weather conditions in past years. The results will help you decide how hot, cold, wet, or windy it might be!

Date:

Astronomy

Feb. 14, 2013 Rise Set
Actual Time 7:03 AM HST 6:29 PM HST
Civil Twilight 6:40 AM HST 6:52 PM HST
Nautical Twilight 6:14 AM HST 7:18 PM HST
Astronomical Twilight 5:48 AM HST 7:44 PM HST
Moon 9:54 AM HST (2/14) 10:56 PM HST (2/14)
Length of Visible Light 12h 12m
Length of Day
11h 26m
Waxing Crescent, 23% of the Moon is Illuminated
Feb 14
Waxing Crescent
Feb 17
First Quarter
Feb 25
Full
Mar 4
Last Quarter
Mar 11
New

Hourly Weather History & Observations

Time (HST) Temp. Dew Point Humidity Pressure Visibility Wind Dir Wind Speed Gust Speed Precip Events Conditions
2:55 AM 63.5 °F 55.8 °F 76% 30.04 in 10.0 mi North 5.8 mph - N/A   Mostly Cloudy
3:55 AM 63.5 °F 55.8 °F 76% 30.04 in 10.0 mi NNW 6.9 mph - N/A   Mostly Cloudy
4:55 AM 59.9 °F 53.2 °F 79% 30.04 in 10.0 mi NNW 5.8 mph - N/A   Partly Cloudy
5:55 AM 60.1 °F 54.5 °F 82% 30.05 in 10.0 mi NW 4.6 mph - N/A   Mostly Cloudy
6:55 AM 59.5 °F 54.0 °F 82% 30.06 in 10.0 mi NNW 4.6 mph - N/A   Mostly Cloudy
8:55 AM 65.8 °F 57.6 °F 75% 30.09 in 10.0 mi NNW 4.6 mph - N/A   Mostly Cloudy
9:55 AM 69.3 °F 57.6 °F 66% 30.10 in 10.0 mi ESE 4.6 mph - N/A   Overcast
10:55 AM 69.6 °F 57.2 °F 65% 30.08 in 10.0 mi East 5.8 mph - N/A   Mostly Cloudy
11:55 AM 70.7 °F 57.9 °F 64% 30.06 in 10.0 mi Calm Calm - N/A   Mostly Cloudy
12:55 PM 74.3 °F 56.5 °F 54% 30.03 in 10.0 mi ENE 11.5 mph - N/A   Scattered Clouds
1:55 PM 73.4 °F 57.2 °F 57% 30.01 in 10.0 mi ENE 11.5 mph - N/A   Scattered Clouds
2:55 PM 72.5 °F 56.7 °F 57% 30.00 in 10.0 mi ENE 10.4 mph - N/A   Overcast
3:55 PM 71.2 °F 57.0 °F 61% 30.00 in 10.0 mi ENE 8.1 mph - N/A   Overcast
4:55 PM 71.2 °F 57.2 °F 61% 30.01 in 10.0 mi ENE 13.8 mph - N/A   Mostly Cloudy
5:55 PM 69.3 °F 57.4 °F 66% 30.02 in 10.0 mi ENE 9.2 mph - N/A   Scattered Clouds
6:55 PM 66.9 °F 56.7 °F 70% 30.03 in 10.0 mi ENE 5.8 mph - N/A   Clear
7:55 PM 66.4 °F 56.5 °F 70% 30.03 in 10.0 mi NE 6.9 mph - N/A   Partly Cloudy
8:55 PM 66.9 °F 56.8 °F 70% 30.04 in 10.0 mi ENE 5.8 mph - N/A   Overcast
9:55 PM 66.9 °F 57.0 °F 70% 30.05 in 10.0 mi NNE 4.6 mph - N/A   Overcast
10:14 PM 66.2 °F 57.2 °F 73% 30.06 in 10.0 mi NNE 3.5 mph - N/A   Light Drizzle
10:25 PM 66.2 °F 57.2 °F 73% 30.06 in 10.0 mi Calm Calm - N/A   Overcast
10:48 PM 66.2 °F 57.2 °F 73% 30.06 in 10.0 mi North 3.5 mph - N/A   Light Drizzle
10:55 PM 66.6 °F 57.7 °F 73% 30.06 in 10.0 mi North 3.5 mph - 0.00 in   Light Drizzle
11:00 PM 66.2 °F 57.2 °F 73% 30.06 in 10.0 mi NE 3.5 mph - N/A   Mostly Cloudy
11:03 PM 66.2 °F 57.2 °F 73% 30.06 in 10.0 mi Calm Calm - N/A   Light Drizzle
11:13 PM 66.2 °F 57.2 °F 73% 30.06 in 10.0 mi Calm Calm - N/A   Overcast
11:18 PM 66.2 °F 57.2 °F 73% 30.06 in 10.0 mi ESE 3.5 mph - N/A   Light Drizzle
11:27 PM 66.2 °F 57.2 °F 73% 30.06 in 10.0 mi NE 3.5 mph - N/A   Overcast
11:55 PM 66.4 °F 57.7 °F 74% 30.05 in 10.0 mi NE 3.5 mph - 0.00 in   Overcast